Погода в Зафарабаде

Узбекистан     40°23′09″N   67°49′05″E
темп.,
°C
ветер,
м/с
пор.,
м/с
влажн.,
%
обл.,
%
осадки,
мм/ч
давл.,
гПа
погр.,
м
27 февраля, сб
сб2723:00−3юв465394 0.0 1030336
02:00−3юв4656100 0.0 1028258
05:00−2в2359100 0.2 1028168
08:00−2в2358100 0.2 1028153
11:00+2вюв2338100 0.2 1029455
14:00+7юз252688 0.0 10271367
17:00+7юв553480 0.0 10271141
20:00+3ююв612420 0.0 1029294
28 февраля, вс
вс2823:00+2ююв413490 0.0 1029414
02:00+2юв716380 0.0 1027463
05:00+1юв612460 0.0 1026314
08:00+2юв613450 0.0 1025354
11:00+8юв710310 0.0 1022679
14:00+11юв68300 0.0 1020712
17:00+11вюв68300 0.0 1019685
20:00+7юв5123949 0.0 1020338
1 марта, пн
пн123:00+6вюв4104174 0.0 1021257
02:00+5юв4848100 0.0 1021157
05:00+5вюв4845100 0.0 1020137
08:00+5вюв454752 0.0 102182
11:00+13юв452826 0.0 1019320
14:00+18вюв56200 0.0 1018523
17:00+17вюв57230 0.0 1017414
20:00+11вюв46370 0.0 1020100
2 марта, вт
вт223:00+10юв44401 0.0 102050
02:00+11ю3336100 0.0 102133
05:00+10ссз2338100 0.0 102128
08:00+9ссз3341100 0.0 102261
11:00+13сз3434100 0.0 1022420
14:00+15сз3329100 0.0 1021788
17:00+15сз3431100 0.0 1020578
20:00+12ссз1238100 0.0 102225
3 марта, ср
ср323:00+11всв1242100 0.0 102229
02:00+9ссв2350100 0.0 102270
05:00+9ссз2364100 0.2 1021111
08:00+7ссз2369100 0.4 1022173
11:00+10зсз2151100 0.4 1021432
14:00+9ююз1166100 0.4 1019303
17:00+9вюв4578100 1.6 1019271
20:00+8вюв488334 0.0 1019242